1336953627341,60.2757
1336953687341,60.3143
1336953747341,60.3232
1336953807341,60.2483
1336953867341,60.3418
1336953927341,60.2679
1336953987341,60.4053
1336954047341,60.3311
1336954107341,60.3060
1336954167341,60.1332
1336954227341,60.1675
1336954287341,60.2290
1336954347341,60.0849
1336954407341,60.2473
1336954467341,60.2336
1336954527341,60.1170
1336954587341,60.2444
1336954647341,60.3765
1336954707341,60.1084
1336954767341,60.3685
1336954827341,60.1411
1336954887341,60.4073
1336954947341,60.1417
1336955007341,60.1826
1336955067341,60.2702
1336955127341,60.5048
1336955187341,60.1837
1336955247341,60.2506
1336955307341,60.3315
1336955367341,60.2374
1336955427341,60.4490
1336955487341,60.3301
1336955547341,60.4241
1336955607341,60.2869
1336955667341,60.5894
1336955727341,60.4451
1336955787341,60.5570
1336955847341,60.3613
1336955907341,60.3375
1336955967341,60.5464
1336956027341,60.3870
1336956087341,60.5069
1336956147341,60.3290
1336956207341,60.5644
1336956267341,60.5699
1336956327341,60.4721
1336956387341,60.3631
1336956447341,60.3041
1336956507341,60.4771
1336956567341,60.4734
1336956627341,60.5169
1336956687341,60.2988
1336956747341,60.7014
1336956807341,60.4578
1336956867341,60.3574
1336956927341,60.5593
1336956987341,60.5527
1336957047341,60.5502
1336957107341,60.5107
1336957167341,60.3582
1336957227352,60.3191
1336957287352,60.4335
1336957347352,60.5359
1336957407352,60.4175
1336957467352,60.6410
1336957527352,60.4597
1336957587352,60.4584
1336957647352,60.4755
1336957707352,60.4383
1336957767352,60.3309
1336957827352,60.4338
1336957887352,60.3805
1336958427352,60.1743
1336958487352,60.4715
1336958547352,60.3800
1336958607352,60.2976
1336958667352,60.4797
1336958727352,60.4895
1336958787352,60.5045
1336958847352,60.4512
1336958907352,60.2843
1336958967352,60.5960
1336959027352,60.3363
1336959087352,60.5246
1336959147352,60.4095
1336959207352,60.4241
1336959267352,60.5561
1336959327352,60.5752
1336959387352,60.6432
1336959447352,60.3414
1336959507352,60.4496
1336959567352,60.5936
1336959627352,60.5581
1336959687352,60.7327
1336959747352,60.4055
1336959807352,60.6095
1336959867352,60.5687
1336959927352,60.3489
1336959987352,60.4610
1336960047352,60.3920
1336960107352,60.6251
1336960167352,60.5296
1336960227352,60.3855
1336960287352,60.4568
1336960347352,60.4683
1336960407352,60.4833
1336960467352,60.3755
1336960527352,60.3050
1336960587352,60.3405
1336960647352,60.2719
1336960707352,60.3161
1336960767352,60.5840
1336960827363,60.3853
1336960887363,60.1952
1336960947363,60.3728
1336961007363,60.4359
1336961067363,60.3189
1336961127363,60.3270
1336961187363,60.4817
1336961247363,60.3022
1336961307363,60.2812
1336961367363,60.3160
1336961427363,60.3475
1336961487363,60.2551
1336961547363,60.1860
1336961607363,60.2921
1336961667363,60.4338
1336961727363,60.1561
1336961787363,60.3558
1336961847363,60.2011
1336961907363,60.3808
1336961967363,60.3914
1336962027363,60.3491
1336962087363,60.2120
1336962147363,60.1792
1336962207363,60.2699
1336962267363,60.3375
1336962327363,60.4204
1336962387363,60.3230
1336962447363,60.2614
1336962507363,60.1516
1336962567363,60.2450
1336962627363,60.1260
1336962687363,60.2613
1336962747363,60.3444
1336962807363,60.3134
1336962867363,60.2841
1336962927363,60.1446
1336962987363,60.2754
1336963047363,60.3414
1336963107363,60.3708
1336963167363,60.2991
1336963227363,60.0880
1336963287363,60.2682
1336963347363,60.0687
1336963407363,60.1525
1336963467363,60.2994
1336963527363,60.1513
1336963587363,60.2325
1336963647363,60.1507
1336963707363,60.1091
1336963767363,60.2584
1336963827363,60.1757
1336963887363,60.1317
1336963947363,60.0682
1336964007363,60.1200
1336964067363,60.1771
1336964127363,60.0965
1336964187363,60.0335
1336964247363,59.9880
1336964307363,60.1681
1336964367363,60.0481
1336964427374,60.0828
1336964487374,60.1646
1336964547374,59.9138
1336964607374,60.1434
1336964667374,60.0798
1336964727374,59.9859
1336964787374,60.1803
1336964847374,59.8733
1336964907374,59.9048
1336964967374,59.8102
1336965027374,59.8511
1336965087374,59.9195
1336965147374,59.9946
1336965207374,60.0391
1336965267374,60.0171
1336965327374,60.0631
1336965387374,59.9754
1336965447374,60.0356
1336965507374,60.0245
1336965567374,59.9875
1336965627374,59.9841
1336965687374,59.9469
1336965747374,60.0136
1336965807374,59.9484
1336965867374,59.9021
1336965927374,60.1214
1336965987374,59.8576
1336966047374,59.9314
1336966107374,59.9789
1336966167374,59.9700
1336966227374,59.8390
1336966287374,59.9552
1336966347374,59.8405
1336966407374,59.9995
1336966467374,59.9901
1336966527374,59.9008
1336966587374,59.8945
1336966647374,59.9358
1336966707374,59.9919
1336966767374,60.1451
1336966827374,59.9868
1336966887374,59.9445
1336966947374,59.9592
1336967007374,59.9924
1336967067374,59.8241
1336967127374,59.8777
1336967187374,59.9855
1336967247374,59.9252
1336967307374,60.1003
1336967367374,59.8597
1336967427374,59.9244
1336967487374,59.9100
1336967547374,59.8849
1336967607374,60.0672
1336967667374,59.9742
1336967727374,60.0377
1336967787374,60.0452
1336967847374,59.8445
1336967907374,60.0009
1336967967374,59.8645
1336968027384,59.9610
1336968087384,59.9393
1336968147384,60.0925
1336968207384,59.8851
1336968267384,59.9939
1336968327384,59.8609
1336968387384,59.9663
1336968447384,59.9838
1336968507384,60.0492
1336968567384,59.9077
1336968627384,59.9236
1336968687384,59.7513
1336968747384,59.9531
1336968807384,59.9734
1336968867384,60.1301
1336968927384,60.3928
1336968987384,59.9016
1336969047384,59.8412
1336969107384,59.8358
1336969167384,59.9685
1336969227384,59.9242
1336969287384,59.8833
1336969347384,60.1829
1336969407384,59.9109
1336969467384,59.8306
1336969527384,59.8593
1336969587384,59.8491
1336969647384,59.8866
1336969707384,60.0467
1336969767384,59.9085
1336969827384,59.8574
1336969887384,59.7320
1336969947384,59.7604
1336970007384,59.9349
1336970067384,59.9065
1336970127384,59.8760
1336970187384,59.8456
1336970247384,60.0101
1336970307384,59.9420
1336970367384,59.8786
1336970427384,59.8795
1336970487384,59.9257
1336970547384,59.8292
1336970607384,59.8457
1336970667384,59.9250
1336970727384,59.9822
1336970787384,59.6279
1336970847384,59.8380
1336970907384,60.1540
1336970967384,59.8878
1336971027384,59.7987
1336971087384,59.9105
1336971147384,60.0636
1336971207384,59.7717
1336971267384,59.9347
1336971327384,59.9305
1336971387384,59.8965
1336971447384,59.9424
1336971507384,59.8216
1336971567384,60.1575
1336971627394,59.8534
1336971687394,59.7872
1336971747394,59.7469
1336971807394,59.8633
1336971867394,59.8794
1336971927394,60.0341
1336971987394,59.7967
1336972047394,59.9364
1336972107394,59.9436
1336972167394,59.8641
1336972227394,59.9484
1336972287394,59.8092
1336972347394,60.0246
1336972407394,59.8475
1336972467394,59.6998
1336972527394,59.8679
1336972587394,59.8633
1336972647394,59.8564
1336972707394,59.8777
1336972767394,59.9295
1336972827394,59.9126
1336972887394,59.9244
1336972947394,59.8581
1336973007394,59.8733
1336973067394,59.8108
1336973127394,59.8969
1336973187394,59.9340
1336973247394,59.8510
1336973307394,59.8780
1336973367394,59.9987
1336973427394,59.7977
1336973487394,59.7279
1336973547394,59.9459
1336973607394,59.9326
1336973667394,59.7877
1336973727394,59.7665
1336973787394,59.8567
1336973847394,59.7915
1336973907394,59.8896
1336973967394,59.9136
1336974027394,59.8177
1336974087394,59.8476
1336974147394,59.8215
1336974207394,59.8842
1336974267394,59.6092
1336974327394,59.7705
1336974387394,59.8474
1336974447394,59.9099
1336974507394,59.8286
1336974567394,59.9761
1336974627394,59.9201
1336974687394,59.8205
1336974747394,59.8339
1336974807394,59.8456
1336974867394,60.0158
1336974927394,59.7766
1336974987394,59.9772
1336975047394,59.6730
1336975107394,59.7842
1336975167394,59.8024
1336975227404,59.8784
1336975287404,59.8642
1336975347404,59.8597
1336975407404,59.8825
1336975467404,59.7992
1336975527404,59.8455
1336975587404,59.6926
1336975647404,59.8719
1336975707404,59.8222
1336975767404,59.7231
1336975827404,59.6424
1336975887404,59.6148
1336975947404,59.5463
1336976007404,59.8290
1336976067404,59.8097
1336976127404,59.7985
1336976187404,59.8429
1336976247404,60.0364
1336976307404,59.7848
1336976367404,59.7585
1336976427404,59.8702
1336976487404,60.0773
1336976547404,59.8885
1336976607404,59.8243
1336976667404,59.8462
1336976727404,59.9425
1336976787404,59.8540
1336976847404,59.7859
1336976907404,59.9013
1336976967404,59.6802
1336977027404,59.9794
1336977087404,59.9613
1336977147404,59.8850
1336977207404,59.7982
1336977267404,59.9392
1336977327404,59.9061
1336977387404,59.7732
1336977447404,59.8330
1336977507404,59.6918
1336977567404,59.7613
1336977627404,59.6238
1336977687404,59.7324
1336977747404,59.8325
1336977807404,59.7047
1336977867404,59.7688
1336977927404,59.6062
1336977987404,59.6977
1336978047404,59.7320
1336978107404,59.6685
1336978167404,59.6895
1336978227404,59.6636
1336978287404,59.7458
1336978347404,59.6733
1336978407404,59.7427
1336978467404,59.7467
1336978527404,59.5616
1336978587404,59.7047
1336978647404,59.7211
1336978707404,59.6830
1336978767404,59.5775
1336978827414,59.5857
1336978887414,59.6630
1336978947414,59.8031
1336979007414,59.8398
1336979067414,59.8000
1336979127414,59.6480
1336979187414,59.8551
1336979247414,59.5393
1336979307414,59.7332
1336979367414,59.7923
1336979427414,59.7342
1336979487414,59.7810
1336979547414,59.7924
1336979607414,59.7909
1336979667414,59.8133
1336979727414,59.8743
1336979787414,59.7640
1336979847414,59.8435
1336979907414,59.9037
1336979967414,59.8064
1336980027414,59.9195
1336980087414,59.8251
1336980147414,59.9861
1336980207414,59.9104
1336980267414,60.0563
1336980327414,59.8532
1336980387414,59.8302
1336980447414,59.8924
1336980507414,59.9087
1336980567414,60.0173
1336980627414,59.9959
1336980687414,60.0992
1336980747414,60.2355
1336980807414,60.0917
1336980867414,60.0920
1336980927414,59.8974
1336980987414,60.2115
1336981047414,60.1052
1336981107414,60.1009
1336981167414,60.2352
1336981227414,60.2677
1336981287414,60.4195
1336981347414,60.2315
1336981407414,60.3644
1336981467414,60.4265
1336981527414,60.3766
1336981587414,60.4701
1336981647414,60.4148
1336981707414,60.5308
1336981767414,60.4715
1336981827414,60.2752
1336981887414,60.4948
1336981947414,60.2349
1336982007414,60.4520
1336982067414,60.3940
1336982127414,60.2756
1336982187414,60.4001
1336982247414,60.5539
1336982307414,60.3859
1336982367414,60.2905
1336982427424,60.2860
1336982487424,60.4057
1336982547424,60.3524
1336982607424,60.3764
1336982667424,60.4406
1336982727424,60.3949
1336982787424,60.4246
1336982847424,60.4368
1336982907424,60.3222
1336982967424,60.1748
1336983027424,60.2120
1336983087424,60.2755
1336983147424,60.2635
1336983207424,60.3095
1336983267424,60.2403
1336983327424,60.1601
1336983387424,60.2547
1336983447424,60.3435
1336983507424,60.1724
1336983567424,60.2474
1336983627424,60.2603
1336983687424,60.1705
1336983747424,60.1546
1336983807424,60.2108
1336983867424,60.1550
1336983927424,60.0869
1336983987424,60.2784
1336984047424,60.2790
1336984107424,60.1171
1336984167424,60.1679
1336984227424,60.1602
1336984287424,60.2671
1336984347424,60.2785
1336984407424,60.3904
1336984467424,60.3052
1336984527424,60.2519
1336984587424,60.2483
1336984647424,60.2883
1336984707424,60.2949
1336984767424,60.2431
1336984827424,60.3965
1336984887424,60.1548
1336984947424,60.3674
1336985007424,60.1294
1336985067424,60.1263
1336985127424,60.2587
1336985187424,60.1771
1336985247424,60.1973
1336985307424,60.1594
1336985367424,60.2231
1336985427424,60.1177
1336985487424,60.1792
1336985547424,60.1250
1336985607424,60.1444
1336985667424,60.1065
1336985727424,60.1987
1336985787424,60.0537
1336985847424,60.1288
1336985907424,60.0197
1336985967424,60.1493
1336986027434,60.0071
1336986087434,60.1137
1336986147434,59.8733
1336986207434,59.9763
1336986267434,60.1284
1336986327434,59.6708
1336986387434,59.9884
1336986447434,59.9704
1336986507434,60.1621
1336986567434,59.9084
1336986627434,59.9170
1336986687434,59.7623
1336986747434,59.8563
1336986807434,59.9288
1336986867434,60.0017
1336986927434,59.9091
1336986987434,59.9471
1336987047434,60.1412
1336987107434,59.9297
1336987167434,59.9079
1336987227434,59.8805
1336987287434,59.8601
1336987347434,59.9778
1336987407434,59.8938
1336987467434,59.9183
1336987527434,59.9005
1336987587434,60.1442
1336987647434,59.9670
1336987707434,59.8601
1336987767434,59.9487
1336987827434,59.9298
1336987887434,59.9636
1336987947434,59.9582
1336988007434,59.9855
1336988067434,59.8609
1336988127434,59.9841
1336988187434,59.9406
1336988247434,59.7777
1336988307434,60.0010
1336988367434,60.4500
1336988427434,60.0708
1336988487434,60.2908
1336988547434,60.2574
1336988607434,60.0830
1336988667434,59.9565
1336988727434,59.9136
1336988787434,59.8728
1336988847434,60.0680
1336988907434,60.0755
1336988967434,59.9756
1336989027434,59.9479
1336989087434,59.9276
1336989147434,59.8106
1336989207434,59.7498
1336989267434,59.8747
1336989327434,59.9591
1336989387434,59.7330
1336989447434,59.9104
1336989507434,60.0541
1336989567434,59.8357
1336989627444,59.9814
1336989687444,59.8856
1336989747444,59.7962
1336989807444,59.8744
1336989867444,59.9420
1336989927444,59.9128
1336989987444,59.8410
1336990047444,59.7744
1336990107444,59.8978
1336990167444,60.0074
1336990227444,59.9800
1336990287444,59.9847
1336990347444,59.9565
1336990407444,59.9292
1336990467444,59.9992
1336990527444,60.0127
1336990587444,60.1385
1336990647444,59.9612
1336990707444,60.1056
1336990767444,60.0853
1336990827444,60.0887
1336990887444,60.0797
1336990947444,60.0127
1336991007444,60.2155
1336991067444,60.0255
1336991127444,60.0404
1336991187444,60.0445
1336991247444,60.0632
1336991307444,60.0948
1336991367444,60.0366
1336991427444,60.0766
1336991487444,60.0616
1336991547444,60.0580
1336991607444,60.2649
1336991667444,60.1358
1336991727444,60.0567
1336991787444,60.0940
1336991847444,60.3059
1336991907444,60.0615
1336991967444,60.1035
1336992027444,60.0757
1336992087444,60.0896
1336992147444,60.0715
1336992207444,60.1295
1336992267444,60.1460
1336992327444,60.2042
1336992387444,60.1431
1336992447444,60.0740
1336992507444,60.2019
1336992567444,60.1356
1336992627444,60.0046
1336992687444,60.1474
1336992747444,60.2930
1336992807444,60.1554
1336992867444,60.2423
1336992927444,60.1416
1336992987444,59.9526
1336993047444,60.2468
1336993107444,60.2017
1336993167444,60.3110
1336993227454,60.2391
1336993287454,60.4198
1336993347454,60.3865
1336993407454,60.4333
1336993467454,60.2768
1336993527454,60.0311
1336993587454,60.1862
1336993647454,60.4886
1336993707454,60.1363
1336993767454,60.2934
1336993827454,60.2682
1336993887454,60.3473
1336993947454,60.3371
1336994007454,60.2430
1336994067454,60.2150
1336994127454,60.2090
1336994187454,60.4091
1336994247454,60.3363
1336994307454,60.4214
1336994367454,60.4148
1336994427454,60.6642
1336994487454,60.5318
1336994547454,60.3986
1336994607454,60.5485
1336994667454,60.3178
1336994727454,60.5442
1336994787454,60.3630
1336994847454,60.4678
1336994907454,60.5737
1336994967454,60.5339
1336995027454,60.2738
1336995087454,60.3651
1336995147454,60.4134
1336995207454,60.5626
1336995267454,60.3889
1336995327454,60.6315
1336995387454,60.6102
1336995447454,60.4492
1336995507454,60.2854
1336995567454,60.4651
1336995627454,60.4464
1336995687454,60.3367
1336995747454,60.3992
1336995807454,60.4780
1336995867454,60.5339
1336995927454,60.3285
1336995987454,60.5916
1336996047454,60.4574
1336996107454,60.6827
1336996167454,60.5472
1336996227454,60.5831
1336996287454,60.5181
1336996347454,60.4132
1336996407454,60.5418
1336996467454,60.6001
1336996527454,60.5080
1336996587454,60.6552
1336996647454,60.5255
1336996707454,60.5532
1336996767454,60.6381
1336996827464,60.6878
1336996887464,60.5547
1336996947464,60.5986
1336997007464,60.6975
1336997067464,60.5254
1336997127464,60.5036
1336997187464,60.6467
1336997247464,60.7041
1336997307464,60.4796
1336997367464,60.6863
1336997427464,60.6439
1336997487464,60.6067
1336997547464,60.5202
1336997607464,60.4840
1336997667464,60.6474
1336997727464,60.6248
1336997787464,60.3592
1336997847464,60.6563
1336997907464,60.5147
1336997967464,60.6224
1336998027464,60.4525
1336998087464,60.6832
1336998147464,60.4628
1336998207464,60.5289
1336998267464,60.5881
1336998327464,60.5222
1336998387464,60.4728
1336998447464,60.4302
1336998507464,60.6323
1336998567464,60.4480
1336998627464,60.4472
1336998687464,60.6347
1336998747464,60.5800
1336998807464,60.7322
1336998867464,60.4517
1336998927464,60.4721
1336998987464,60.8079
1336999047464,60.4248
1336999107464,60.4895
1336999167464,60.6079
1336999227464,60.4905
1336999287464,60.6490
1336999347464,60.6893
1336999407464,60.4161
1336999467464,60.6700
1336999527464,60.6173
1336999587464,60.4657
1336999647464,60.5187
1336999707464,60.3346
1336999767464,60.5254
1336999827464,60.4821
1336999887464,60.5356
1336999947464,60.5445
1337000007464,60.4931
1337000067464,60.4586
1337000127464,60.4253
1337000187464,60.4600
1337000247464,60.5866
1337000307464,60.6180
1337000367464,60.5938
1337000427474,60.4922
1337000487474,60.5743
1337000547474,60.5832
1337000607474,60.5977
1337000667474,60.4763
1337000727474,60.5181
1337000787474,60.4434
1337000847474,60.3771
1337000907474,60.5342
1337000967474,60.5521
1337001027474,60.4297
1337001087474,60.5099
1337001147474,60.6515
1337001207474,60.4829
1337001267474,60.4238
1337001327474,60.2903
1337001387474,60.5516
1337001447474,60.5199
1337001507474,60.3257
1337001567474,60.4214
1337001627474,60.5458
1337001687474,60.3864
1337001747474,60.5659
1337001807474,60.4863
1337001867474,60.5173
1337001927474,60.4736
1337001987474,60.4136
1337002047474,60.5677
1337002107474,60.6787
1337002167474,60.3864
1337002227474,60.3832
1337002287474,60.5027
1337002347474,60.4647
1337002407474,60.4962
1337002467474,60.5027
1337002527474,60.5337
1337002587474,60.6677
1337002647474,60.4533
1337002707474,60.5658
1337002767474,60.5098
1337002827474,60.3122
1337002887474,60.4205
1337002947474,60.3685
1337003007474,60.5199
1337003067474,60.5437
1337003127474,60.5206
1337003187474,60.6171
1337003247474,60.3745
1337003307474,60.5218
1337003367474,60.4585
1337003427474,60.4635
1337003487474,60.5228
1337003547474,60.4369
1337003607474,60.4335
1337003667474,60.5870
1337003727474,60.4881
1337003787474,60.5289
1337003847474,60.6635
1337003907474,60.3726
1337003967474,60.4749
1337004027484,60.6568
1337004087484,60.5537
1337004147484,60.4499
1337004207484,60.4849
1337004267484,60.5020
1337004327484,60.5126
1337004387484,60.5292
1337004447484,60.7690
1337004507484,60.8181
1337004567484,60.4249
1337004627484,60.5267
1337004687484,60.6134
1337004747484,60.6551
1337004807484,60.4887
1337004867484,60.5343
1337004927484,60.5259
1337004987484,60.5889
1337005047484,60.8058
1337005107484,60.8048
1337005167484,60.6987
1337005227484,60.7440
1337005287484,60.7458
1337005347484,60.7000
1337005407484,60.7449
1337005467484,60.7743
1337005527484,60.6310
1337005587484,60.7910
1337005647484,60.6112
1337005707484,60.6479
1337005767484,60.6843
1337005827484,60.5935
1337005887484,60.6792
1337005947484,60.4832
1337006007484,60.6167
1337006067484,60.8659
1337006127484,60.7366
1337006187484,60.6417
1337006247484,60.6863
1337006307484,60.7763
1337006367484,60.8723
1337006427484,60.6135
1337006487484,60.8427
1337006547484,60.7625
1337006607484,60.8193
1337006667484,60.7368
1337006727484,60.9364
1337006787484,60.8300
1337006847484,60.7265
1337006907484,60.8001
1337006967484,60.9204
1337007027484,60.9294
1337007087484,60.6838
1337007147484,60.6279
1337007207484,60.6642
1337007267484,60.5939
1337007327484,60.5803
1337007387484,60.6730
1337007447484,60.6331
1337007507484,60.7174
1337007567484,60.6357
1337007627494,60.6751
1337007687494,60.6822
1337007747494,60.6631
1337007807494,60.5339
1337007867494,60.4493
1337007927494,60.6348
1337007987494,60.4470
1337008047494,60.7459
1337008107494,60.6209
1337008167494,60.3582
1337008227494,60.5792
1337008287494,60.5888
1337008347494,60.5307
1337008407494,60.5557
1337008467494,60.5152
1337008527494,60.7889
1337008587494,60.4890
1337008647494,60.6393
1337008707494,60.6672
1337008767494,60.7989
1337008827494,60.6244
1337008887494,60.5572
1337008947494,60.5752
1337009007494,60.6860
1337009067494,60.6077
1337009127494,60.5823
1337009187494,60.7188
1337009247494,60.6471
1337009307494,60.6516
1337009367494,60.7464
1337009427494,60.5907
1337009487494,60.8559
1337009547494,60.7527
1337009607494,60.6967
1337009667494,60.5481
1337009727494,60.7117
1337009787494,60.6659
1337009847494,60.7247
1337009907494,60.6690
1337009967494,60.6626
1337010027494,60.7411
1337010087494,60.7556
1337010147494,60.6899
1337010207494,60.5264
1337010267494,60.7587
1337010327494,60.8402
1337010387494,60.5198
1337010447494,60.7529
1337010507494,60.6091
1337010567494,60.6604
1337010627494,60.4441
1337010687494,60.7657
1337010747494,60.5497
1337010807494,60.6206
1337010867494,60.6924
1337010927494,60.7899
1337010987494,60.5759
1337011047494,60.7298
1337011107494,60.6309
1337011167494,60.7571
1337011227503,60.6705
1337011287503,60.6860
1337011347503,60.5693
1337011407503,60.6267
1337011467503,60.5014
1337011527503,60.7232
1337011587503,60.5779
1337011647503,60.8922
1337011707503,60.5385
1337011767504,60.7556
1337011827504,60.6193
1337011887504,60.7087
1337011947503,60.7775
1337012007503,60.7655
1337012067503,60.6852
1337012127503,60.8438
1337012187503,60.9450
1337012247503,60.6914
1337012307503,60.8510
1337012367503,60.5240
1337012427503,60.5968
1337012487503,60.5927
1337012547503,60.5274
1337012607503,60.6443
1337012667503,60.6893
1337012727503,60.8360
1337012787503,60.6564
1337012847503,60.6751
1337012907503,60.8133
1337012967503,60.7135
1337013027503,60.5391
1337013087504,60.6338
1337013147504,60.6891
1337013207504,60.6088
1337013267504,60.7360
1337013327503,60.5069
1337013387503,60.7151
1337013447503,60.5809
1337013507503,60.8410
1337013567503,60.5858
1337013627503,60.6751
1337013687503,60.6990
1337013747503,60.6437
1337013807503,60.6327
1337013867503,60.6504
1337013927503,60.5564
1337013987503,60.7149
1337014047503,60.6124
1337014107503,60.6468
1337014167503,60.5904
1337014227503,60.7661
1337014287503,60.7632
1337014347503,60.5460
1337014407503,60.7092
1337014467504,60.5585
1337014527504,60.5095
1337014587504,60.6259
1337014647503,60.7286
1337014707503,60.7813
1337014767503,60.4471
1337014827513,60.7458
1337014887513,60.7777
1337014947513,60.6018
1337015007513,60.4082
1337015067513,60.5094
1337015127513,60.7152
1337015187513,60.6530
1337015247513,60.5900
1337015307513,60.5643
1337015367513,60.4845
1337015427513,60.7073
1337015487513,60.7402
1337015547513,60.5782
1337015607513,60.7292
1337015667513,60.7761
1337015727513,60.6013
1337015787513,60.6526
1337015847513,60.8472
1337015907513,60.4212
1337015967513,60.5746
1337016027513,60.7372
1337016087513,60.5406
1337016147513,60.6459
1337016207513,60.7109
1337016267513,60.6829
1337016327513,60.5098
1337016387513,60.6954
1337016447513,60.6885
1337016507513,60.5768
1337016567513,60.6561
1337016627513,60.4307
1337016687513,60.5969
1337016747513,60.6531
1337016807513,60.4028
1337016867513,60.4879
1337016927513,60.5658
1337016987513,60.4542
1337017047513,60.6563
1337017107513,60.5890
1337017167513,60.6227
1337017227513,60.5649
1337017287513,60.4933
1337017347513,60.5671
1337017407513,60.6172
1337017467513,60.6601
1337017527513,60.5032
1337017587513,60.4598
1337017647513,60.4674
1337017707513,60.3788
1337017767513,60.5373
1337017827513,60.5499
1337017887513,60.3828
1337017947513,60.4866
1337018007513,60.4414
1337018067513,60.5115
1337018127513,60.5819
1337018187513,60.6832
1337018247513,60.4550
1337018307513,60.5753
1337018367513,60.3792
1337018427524,60.4527
1337018487524,60.6202
1337018547524,60.3929
1337018607524,60.6860
1337018667524,60.4475
1337018727524,60.6717
1337018787524,60.5000
1337018847524,60.5396
1337018907524,60.5276
1337018967524,60.6123
1337019027524,60.4106
1337019087524,60.7097
1337019147524,60.3618
1337019207524,60.6868
1337019267524,60.5220
1337019327524,60.5227
1337019387524,60.6176
1337019447524,60.5433